GW4629 Weather Reports


Display with metric or nautical units.
time (UTC)temp
F
wind
direction
speed
MPH
gust
MPH
rain 1hr
in
rain 24hr
in
rain mn
in
humidity
%
barometer
mb
20260902101412 59 84 11.0 14.0 0.00 0.00 0.00 99 1025.7
20260902100911 57 135 10.0 11.0 0.00 0.00 0.00 99 1025.7
20260902100406 57 135 10.0 11.0 0.00 0.00 0.00 99 1025.7
20260902095901 58 90 12.0 14.0 0.00 0.00 0.00 99 1025.6
20260902095401 58 90 12.0 14.0 0.00 0.00 0.00 99 1025.6
20260902094855 59 103 12.0 14.0 0.00 0.00 0.00 99 1025.7
20260902094351 59 103 12.0 14.0 0.00 0.00 0.00 99 1025.7
20260902093850 59 103 9.0 10.0 0.00 0.00 0.00 99 1025.6
20260902093346 59 103 9.0 10.0 0.00 0.00 0.00 99 1025.6
20260902092844 60 76 11.0 13.0 0.00 0.00 0.00 99 1025.7
20260902092340 60 76 11.0 13.0 0.00 0.00 0.00 99 1025.7
20260902091835 60 98 11.0 11.0 0.00 0.00 0.00 99 1025.8
20260902091330 60 98 11.0 11.0 0.00 0.00 0.00 99 1025.8
20260902090827 59 87 11.0 13.0 0.00 0.00 0.00 99 1025.7
20260902090326 59 87 11.0 13.0 0.00 0.00 0.00 99 1025.7
20260902085825 59 106 12.0 14.0 0.00 0.00 0.00 99 1025.6
20260902085321 59 106 12.0 14.0 0.00 0.00 0.00 99 1025.6
20260902084816 59 106 11.0 13.0 0.00 0.00 0.00 99 1025.7
20260902084313 59 106 11.0 13.0 0.00 0.00 0.00 99 1025.7
20260902083807 58 107 9.0 10.0 0.00 0.00 0.00 99 1025.8
20260902083302 58 107 9.0 10.0 0.00 0.00 0.00 99 1025.8
20260902082802 57 114 11.0 13.0 0.00 0.00 0.00 99 1026.0
20260902082259 57 114 11.0 13.0 0.00 0.00 0.00 99 1026.0
20260902081754 56 93 1.0 2.0 0.00 0.00 0.00 99 1026.0
20260902081250 56 93 1.0 2.0 0.00 0.00 0.00 99 1026.0
20260902080745 56 169 3.0 3.0 0.00 0.00 0.00 99 1026.1
20260902080242 56 154 3.0 4.0 0.00 0.00 0.00 99 1026.0
20260902075741 56 154 3.0 4.0 0.00 0.00 0.00 99 1026.0
20260902075238 56 126 0.0 0.0 0.00 0.00 0.00 99 1026.2
20260902074737 56 126 0.0 0.0 0.00 0.00 0.00 99 1026.2
20260902074233 57 139 0.0 0.0 0.00 0.00 0.00 99 1026.2
20260902073728 57 139 0.0 0.0 0.00 0.00 0.00 99 1026.2
20260902073224 57 174 1.0 2.0 0.00 0.00 0.00 99 1025.8
20260902072721 57 174 1.0 2.0 0.00 0.00 0.00 99 1025.8
20260902072216 57 149 1.0 2.0 0.00 0.00 0.00 99 1026.1
20260902071712 57 149 1.0 2.0 0.00 0.00 0.00 99 1026.1
20260902071208 58 124 3.0 3.0 0.00 0.00 0.00 99 1026.2
20260902070704 58 124 3.0 3.0 0.00 0.00 0.00 99 1026.2
20260902070203 59 149 5.0 7.0 0.00 0.00 0.00 99 1025.8
20260902065701 59 149 5.0 7.0 0.00 0.00 0.00 99 1025.8
20260902065157 59 114 6.0 8.0 0.00 0.00 0.00 99 1026.0
20260902064652 59 114 6.0 8.0 0.00 0.00 0.00 99 1026.0
20260902064148 60 100 11.0 13.0 0.00 0.00 0.00 99 1025.8
20260902063644 60 100 11.0 13.0 0.00 0.00 0.00 99 1025.8
20260902063143 59 111 7.0 8.0 0.00 0.00 0.00 99 1026.0
20260902062638 59 111 7.0 8.0 0.00 0.00 0.00 99 1026.0
20260902062133 60 100 9.0 10.0 0.00 0.00 0.00 99 1026.0
20260902061632 60 100 9.0 10.0 0.00 0.00 0.00 99 1026.0
20260902061128 60 104 10.0 11.0 0.00 0.00 0.00 99 1026.0
20260902060624 60 104 10.0 11.0 0.00 0.00 0.00 99 1026.0
20260902060120 60 122 9.0 10.0 0.00 0.00 0.00 99 1026.1
20260902055615 60 122 9.0 10.0 0.00 0.00 0.00 99 1026.1
20260902055111 60 145 6.0 6.0 0.00 0.00 0.00 99 1026.1
20260902054605 60 145 6.0 6.0 0.00 0.00 0.00 99 1026.1
20260902054101 61 127 8.0 8.0 0.00 0.00 0.00 99 1026.3
20260902053551 61 127 8.0 8.0 0.00 0.00 0.00 99 1026.3
20260902053050 61 147 5.0 6.0 0.00 0.00 0.00 99 1026.3
20260902052544 61 147 5.0 6.0 0.00 0.00 0.00 99 1026.3
20260902052040 61 140 7.0 8.0 0.00 0.00 0.00 99 1026.2
20260902051535 61 140 7.0 8.0 0.00 0.00 0.00 99 1026.2
20260902051034 62 156 3.0 3.0 0.00 0.00 0.00 99 1026.1
20260902050529 62 156 3.0 3.0 0.00 0.00 0.00 99 1026.1
20260902050024 62 113 9.0 11.0 0.00 0.00 0.00 99 1026.3
20260902045519 62 113 9.0 11.0 0.00 0.00 0.00 99 1026.3
20260902045016 61 119 9.0 9.0 0.00 0.00 0.00 99 1026.2
20260902044510 61 119 9.0 9.0 0.00 0.00 0.00 99 1026.2
20260902044006 62 123 6.0 7.0 0.00 0.00 0.00 99 1026.3
20260902043500 62 123 6.0 7.0 0.00 0.00 0.00 99 1026.3
20260902042955 63 121 7.0 8.0 0.00 0.00 0.00 99 1026.3
20260902042455 63 121 7.0 8.0 0.00 0.00 0.00 99 1026.3
20260902041950 63 112 4.0 4.0 0.00 0.00 0.00 99 1026.3
20260902041444 63 112 4.0 4.0 0.00 0.00 0.00 99 1026.3
20260902040939 62 125 6.0 8.0 0.00 0.00 0.00 99 1026.5
20260902040433 62 125 6.0 8.0 0.00 0.00 0.00 99 1026.5
20260902035932 63 159 8.0 9.0 0.00 0.00 0.00 99 1026.1
20260902035427 63 159 8.0 9.0 0.00 0.00 0.00 99 1026.1
20260902034927 64 105 5.0 7.0 0.00 0.00 0.00 99 1026.3
20260902034421 64 105 5.0 7.0 0.00 0.00 0.00 99 1026.3
20260902033921 64 91 4.0 6.0 0.00 0.00 0.00 99 1026.3
20260902033415 64 91 4.0 6.0 0.00 0.00 0.00 99 1026.3
20260902032914 64 137 4.0 4.0 0.00 0.00 0.00 99 1026.0
20260902032408 64 137 4.0 4.0 0.00 0.00 0.00 99 1026.0
20260902031903 65 112 3.0 3.0 0.00 0.00 0.00 99 1026.2
20260902031358 65 112 3.0 3.0 0.00 0.00 0.00 99 1026.2
20260902030855 64 139 1.0 1.0 0.00 0.00 0.00 99 1026.1
20260902030349 64 139 1.0 1.0 0.00 0.00 0.00 99 1026.1
20260902025848 65 161 7.0 8.0 0.00 0.00 0.00 99 1025.8
20260902025344 65 161 7.0 8.0 0.00 0.00 0.00 99 1025.8
20260902024844 65 155 9.0 9.0 0.00 0.00 0.00 99 1025.7
20260902024339 65 155 9.0 9.0 0.00 0.00 0.00 99 1025.7
20260902023834 65 145 8.0 8.0 0.00 0.00 0.00 99 1025.6
20260902023331 65 145 8.0 8.0 0.00 0.00 0.00 99 1025.6
20260902022829 66 82 7.0 9.0 0.00 0.00 0.00 99 1025.5
20260902022325 66 82 7.0 9.0 0.00 0.00 0.00 99 1025.5
20260902021821 65 91 3.0 3.0 0.00 0.00 0.00 99 1025.2
20260902021320 65 91 3.0 3.0 0.00 0.00 0.00 99 1025.2
20260902020816 65 85 5.0 6.0 0.00 0.00 0.00 99 1025.2
20260902020312 65 85 5.0 6.0 0.00 0.00 0.00 99 1025.2
20260902015807 65 74 5.0 6.0 0.00 0.00 0.00 99 1025.2
20260902015306 65 74 5.0 6.0 0.00 0.00 0.00 99 1025.2
20260902014759 66 99 6.0 7.0 0.00 0.00 0.00 99 1025.2
20260902014256 66 99 6.0 7.0 0.00 0.00 0.00 99 1025.2
20260902013754 66 111 11.0 13.0 0.00 0.00 0.00 99 1025.2
20260902013250 66 111 11.0 13.0 0.00 0.00 0.00 99 1025.2
20260902012745 66 117 14.0 16.0 0.00 0.00 0.00 99 1025.1
20260902012241 66 117 14.0 16.0 0.00 0.00 0.00 99 1025.1
20260902011736 66 123 17.0 22.0 0.00 0.00 0.00 99 1024.8
20260902011236 66 123 17.0 22.0 0.00 0.00 0.00 99 1024.8
20260902010735 67 89 11.0 13.0 0.00 0.00 0.00 99 1025.1
20260902010231 67 89 11.0 13.0 0.00 0.00 0.00 99 1025.1
20260902005729 68 98 4.0 6.0 0.00 0.00 0.00 99 1025.3
20260902005225 68 98 4.0 6.0 0.00 0.00 0.00 99 1025.3
20260902004725 68 117 1.0 2.0 0.00 0.00 0.00 99 1025.6
20260902004220 68 117 1.0 2.0 0.00 0.00 0.00 99 1025.6
20260902003715 68 79 11.0 15.0 0.00 0.00 0.00 99 1025.5
20260902003210 68 79 11.0 15.0 0.00 0.00 0.00 99 1025.5
20260902002706 68 117 11.0 13.0 0.00 0.00 0.00 99 1025.6
20260902002200 66 119 14.0 16.0 0.00 0.00 0.00 99 1025.7
20260902001656 66 119 14.0 16.0 0.00 0.00 0.00 99 1025.7
20260902001155 67 77 16.0 17.0 0.00 0.00 0.00 99 1025.8
20260902000650 67 77 16.0 17.0 0.00 0.00 0.00 99 1025.8
20260902000145 68 62 14.0 16.0 0.00 0.00 0.00 99 1025.7
20260901235639 68 62 14.0 16.0 0.00 0.00 0.00 99 1025.7
20260901235135 69 64 6.0 7.0 0.00 0.00 0.00 99 1026.0
20260901234634 69 64 6.0 7.0 0.00 0.00 0.00 99 1026.0
20260901234129 68 68 12.0 14.0 0.00 0.00 0.00 99 1026.1
20260901233624 68 68 12.0 14.0 0.00 0.00 0.00 99 1026.1
20260901233120 65 107 8.0 8.0 0.00 0.00 0.00 99 1026.0
20260901232620 65 107 8.0 8.0 0.00 0.00 0.00 99 1026.0
20260901232115 63 154 12.0 15.0 0.00 0.00 0.00 99 1026.1
20260901231612 63 154 12.0 15.0 0.00 0.00 0.00 99 1026.1
20260901231108 63 119 11.0 13.0 0.00 0.00 0.00 99 1026.3
20260901230603 63 119 11.0 13.0 0.00 0.00 0.00 99 1026.3
20260901230057 64 75 11.0 13.0 0.00 0.00 0.00 99 1026.5
20260901225552 64 75 11.0 13.0 0.00 0.00 0.00 99 1026.5
20260901225052 62 156 10.0 11.0 0.00 0.00 0.00 99 1026.1
20260901224548 62 156 10.0 11.0 0.00 0.00 0.00 99 1026.1
20260901224044 60 147 14.0 15.0 0.00 0.00 0.00 99 1026.3
20260901223539 60 147 14.0 15.0 0.00 0.00 0.00 99 1026.3
20260901223035 60 91 17.0 21.0 0.00 0.00 0.00 99 1026.2
20260901222531 60 91 17.0 21.0 0.00 0.00 0.00 99 1026.2
20260901222026 60 101 24.0 31.0 0.00 0.00 0.00 99 1025.8
20260901221522 60 101 24.0 31.0 0.00 0.00 0.00 99 1025.8
20260901221012 66 138 28.0 31.0 0.00 0.00 0.00 99 1026.0
20260901220511 66 138 28.0 31.0 0.00 0.00 0.00 99 1026.0
20260901220010 73 82 9.0 10.0 0.00 0.00 0.00 99 1025.3
20260901215508 73 82 9.0 10.0 0.00 0.00 0.00 99 1025.3
20260901215003 74 140 11.0 11.0 0.00 0.00 0.00 99 1025.2
20260901214501 74 140 11.0 11.0 0.00 0.00 0.00 99 1025.2
20260901213955 76 98 9.0 11.0 0.00 0.00 0.00 99 1025.2
20260901213451 76 98 9.0 11.0 0.00 0.00 0.00 99 1025.2
20260901212949 76 105 3.0 3.0 0.00 0.00 0.00 99 1025.2
20260901212445 76 105 3.0 3.0 0.00 0.00 0.00 99 1025.2
20260901211941 75 105 3.0 4.0 0.00 0.00 0.00 99 1025.2
20260901211436 75 105 3.0 4.0 0.00 0.00 0.00 99 1025.2
20260901210932 76 155 4.0 10.0 0.00 0.00 0.00 99 1025.7
20260901210428 76 155 4.0 10.0 0.00 0.00 0.00 99 1025.7
20260901205924 73 343 6.0 7.0 0.00 0.00 0.00 99 1025.7
20260901205419 73 343 6.0 7.0 0.00 0.00 0.00 99 1025.7
20260901204913 73 38 5.0 7.0 0.00 0.00 0.00 99 1025.7
20260901204410 73 38 5.0 7.0 0.00 0.00 0.00 99 1025.7
20260901203910 73 139 2.0 3.0 0.00 0.00 0.00 99 1025.8
20260901203404 73 139 2.0 3.0 0.00 0.00 0.00 99 1025.8
20260901202859 72 67 7.0 8.0 0.00 0.00 0.00 99 1026.1
20260901202354 72 67 7.0 8.0 0.00 0.00 0.00 99 1026.1
20260901201851 73 34 6.0 11.0 0.00 0.00 0.00 99 1026.0
20260901201350 73 34 6.0 11.0 0.00 0.00 0.00 99 1026.0
20260901200844 73 315 4.0 6.0 0.00 0.00 0.00 99 1026.0
20260901200339 73 315 4.0 6.0 0.00 0.00 0.00 99 1026.0
20260901195837 75 235 4.0 7.0 0.00 0.00 0.00 99 1026.1
20260901195330 75 235 4.0 7.0 0.00 0.00 0.00 99 1026.1
20260901194827 72 19 4.0 6.0 0.00 0.00 0.00 99 1025.8
20260901194321 72 19 4.0 6.0 0.00 0.00 0.00 99 1025.8
20260901193818 69 57 15.0 19.0 0.00 0.00 0.00 99 1026.1
20260901193316 69 57 15.0 19.0 0.00 0.00 0.00 99 1026.1
20260901192811 69 33 10.0 19.0 0.00 0.00 0.00 99 1025.6
20260901192307 69 33 10.0 19.0 0.00 0.00 0.00 99 1025.6
20260901191802 74 144 9.0 13.0 0.00 0.00 0.00 99 1025.8
20260901191258 74 144 9.0 13.0 0.00 0.00 0.00 99 1025.8
20260901190754 75 63 8.0 14.0 0.00 0.00 0.00 99 1026.1
20260901190247 75 63 8.0 14.0 0.00 0.00 0.00 99 1026.1
20260901185745 74 67 8.0 10.0 0.00 0.00 0.00 99 1026.1
20260901185240 74 67 8.0 10.0 0.00 0.00 0.00 99 1026.1
20260901184735 72 40 5.0 10.0 0.00 0.00 0.00 99 1026.5
20260901184230 72 40 5.0 10.0 0.00 0.00 0.00 99 1026.5
20260901183726 71 68 11.0 15.0 0.00 0.00 0.00 99 1026.5
20260901183225 71 68 11.0 15.0 0.00 0.00 0.00 99 1026.5
20260901182722 70 72 14.0 16.0 0.00 0.00 0.00 99 1026.5
20260901182220 70 72 14.0 16.0 0.00 0.00 0.00 99 1026.5
20260901181716 70 51 11.0 15.0 0.00 0.00 0.00 99 1026.7
20260901181210 70 51 11.0 15.0 0.00 0.00 0.00 99 1026.7
20260901180709 69 87 9.0 10.0 0.00 0.00 0.00 99 1026.5
20260901180208 69 87 9.0 10.0 0.00 0.00 0.00 99 1026.5
20260901175708 68 144 14.0 15.0 0.00 0.00 0.00 99 1026.6
20260901175208 68 144 14.0 15.0 0.00 0.00 0.00 99 1026.6
20260901174703 68 160 14.0 17.0 0.00 0.00 0.00 99 1026.5
20260901174159 68 160 14.0 17.0 0.00 0.00 0.00 99 1026.5
20260901173654 67 144 10.0 14.0 0.00 0.00 0.00 99 1026.7
20260901173150 67 144 10.0 14.0 0.00 0.00 0.00 99 1026.7
20260901172645 67 131 13.0 14.0 0.00 0.00 0.00 99 1026.6
20260901172143 67 131 13.0 14.0 0.00 0.00 0.00 99 1026.6
20260901171637 67 65 13.0 16.0 0.00 0.00 0.00 99 1026.6
20260901171136 67 65 13.0 16.0 0.00 0.00 0.00 99 1026.6
20260901170631 67 84 3.0 6.0 0.00 0.00 0.00 99 1026.5
20260901170126 67 84 3.0 6.0 0.00 0.00 0.00 99 1026.5
20260901165625 67 69 7.0 10.0 0.00 0.00 0.00 99 1026.6
20260901165120 67 69 7.0 10.0 0.00 0.00 0.00 99 1026.6
20260901164616 69 147 9.0 13.0 0.00 0.00 0.00 99 1026.6
20260901164110 68 36 7.0 9.0 0.00 0.00 0.00 99 1026.3
20260901163606 68 36 7.0 9.0 0.00 0.00 0.00 99 1026.3
20260901163105 66 54 7.0 9.0 0.00 0.00 0.00 99 1026.5
20260901162601 66 54 7.0 9.0 0.00 0.00 0.00 99 1026.5
20260901162100 66 66 11.0 14.0 0.00 0.00 0.00 99 1026.6
20260901161559 66 66 11.0 14.0 0.00 0.00 0.00 99 1026.6
20260901161053 68 35 4.0 9.0 0.00 0.00 0.00 99 1026.5
20260901160549 68 35 4.0 9.0 0.00 0.00 0.00 99 1026.5
20260901160044 67 279 3.0 3.0 0.00 0.00 0.00 99 1026.5
20260901155543 67 279 3.0 3.0 0.00 0.00 0.00 99 1026.5
20260901155039 66 114 6.0 7.0 0.00 0.00 0.00 99 1026.6
20260901154533 66 114 6.0 7.0 0.00 0.00 0.00 99 1026.6
20260901154028 64 131 0.0 0.0 0.00 0.00 0.00 99 1026.6
20260901153523 64 131 0.0 0.0 0.00 0.00 0.00 99 1026.6
20260901153022 64 120 1.0 1.0 0.00 0.00 0.00 99 1026.6
20260901152517 64 120 1.0 1.0 0.00 0.00 0.00 99 1026.6
20260901152017 62 47 5.0 7.0 0.00 0.00 0.00 99 1026.6
20260901151512 62 47 5.0 7.0 0.00 0.00 0.00 99 1026.6
20260901151011 60 143 2.0 4.0 0.00 0.00 0.00 99 1026.7
20260901150509 60 143 2.0 4.0 0.00 0.00 0.00 99 1026.7
20260901150008 60 97 3.0 4.0 0.00 0.00 0.00 99 1026.8
20260901145506 60 97 3.0 4.0 0.00 0.00 0.00 99 1026.8
20260901145001 60 88 6.0 7.0 0.00 0.00 0.00 99 1027.0
20260901144456 60 88 6.0 7.0 0.00 0.00 0.00 99 1027.0
20260901143951 60 119 6.0 7.0 0.00 0.00 0.00 99 1027.0
20260901143447 60 119 6.0 7.0 0.00 0.00 0.00 99 1027.0
20260901142943 59 112 1.0 1.0 0.00 0.00 0.00 99 1027.2
20260901142438 59 112 1.0 1.0 0.00 0.00 0.00 99 1027.2
20260901141933 59 65 2.0 2.0 0.00 0.00 0.00 99 1027.1
20260901141427 59 65 2.0 2.0 0.00 0.00 0.00 99 1027.1
20260901140922 59 133 1.0 2.0 0.00 0.00 0.00 99 1026.8
20260901140420 59 133 1.0 2.0 0.00 0.00 0.00 99 1026.8
20260901135915 59 157 7.0 9.0 0.00 0.00 0.00 99 1026.8
20260901135410 59 157 7.0 9.0 0.00 0.00 0.00 99 1026.8
20260901134906 57 147 8.0 9.0 0.00 0.00 0.00 99 1026.6
20260901134401 57 147 8.0 9.0 0.00 0.00 0.00 99 1026.6
20260901133901 58 171 9.0 10.0 0.00 0.00 0.00 99 1026.5
20260901133359 58 171 9.0 10.0 0.00 0.00 0.00 99 1026.5
20260901132858 58 115 3.0 3.0 0.00 0.00 0.00 99 1026.5
20260901132353 58 115 3.0 3.0 0.00 0.00 0.00 99 1026.5
20260901131852 58 105 3.0 3.0 0.00 0.00 0.00 99 1026.2
20260901131352 58 105 3.0 3.0 0.00 0.00 0.00 99 1026.2
20260901130848 58 156 2.0 2.0 0.00 0.00 0.00 99 1026.1
20260901130342 58 156 2.0 2.0 0.00 0.00 0.00 99 1026.1
20260901125840 56 133 0.0 1.0 0.00 0.00 0.00 99 1026.0
20260901125334 56 133 0.0 1.0 0.00 0.00 0.00 99 1026.0
20260901124829 55 141 1.0 1.0 0.00 0.00 0.00 99 1025.8
20260901124325 55 141 1.0 1.0 0.00 0.00 0.00 99 1025.8
20260901123824 57 58 2.0 2.0 0.00 0.00 0.00 99 1025.7
20260901123319 57 58 2.0 2.0 0.00 0.00 0.00 99 1025.7
20260901122818 58 74 7.0 8.0 0.00 0.00 0.00 99 1025.7
20260901122317 58 74 7.0 8.0 0.00 0.00 0.00 99 1025.7
20260901121817 55 108 6.0 7.0 0.00 0.00 0.00 99 1025.8
20260901121312 55 108 6.0 7.0 0.00 0.00 0.00 99 1025.8
20260901120807 55 138 3.0 3.0 0.00 0.00 0.00 99 1025.8
20260901120307 55 138 3.0 3.0 0.00 0.00 0.00 99 1025.8
20260901115802 56 116 3.0 3.0 0.00 0.00 0.00 99 1025.8
20260901115258 56 116 3.0 3.0 0.00 0.00 0.00 99 1025.8
20260901114755 55 80 4.0 4.0 0.00 0.00 0.00 99 1025.7
20260901114250 55 80 4.0 4.0 0.00 0.00 0.00 99 1025.7
20260901113749 55 109 5.0 6.0 0.00 0.00 0.00 99 1025.6
20260901113244 55 109 5.0 6.0 0.00 0.00 0.00 99 1025.6
20260901112744 55 107 4.0 6.0 0.00 0.00 0.00 99 1025.6
20260901112243 55 107 4.0 6.0 0.00 0.00 0.00 99 1025.6
20260901111738 56 108 6.0 7.0 0.00 0.00 0.00 99 1025.3
20260901111237 56 108 6.0 7.0 0.00 0.00 0.00 99 1025.3
20260901110731 55 151 6.0 6.0 0.00 0.00 0.00 99 1025.7
20260901110226 55 151 6.0 6.0 0.00 0.00 0.00 99 1025.7
20260901105723 56 85 6.0 8.0 0.00 0.00 0.00 99 1025.8
20260901105223 56 85 6.0 8.0 0.00 0.00 0.00 99 1025.8
20260901104719 56 175 7.0 8.0 0.00 0.00 0.00 99 1025.7
20260901104214 56 175 7.0 8.0 0.00 0.00 0.00 99 1025.7
20260901103713 58 119 4.0 4.0 0.00 0.00 0.00 99 1025.7
20260901103209 58 119 4.0 4.0 0.00 0.00 0.00 99 1025.7
20260901102703 57 98 1.0 1.0 0.00 0.00 0.00 99 1025.6
20260901102202 57 98 1.0 1.0 0.00 0.00 0.00 99 1025.6
20260901101659 57 72 2.0 3.0 0.00 0.00 0.00 99 1026.0